N7QNM-13 Weather Reports


Display with metric or nautical units.
time (UTC)temp
F
wind
direction
speed
MPH
gust
MPH
rain 1hr
in
rain 24hr
in
rain mn
in
humidity
%
barometer
mb
20190919080526 53 193 1.0 2.0 0.00 0.00 0.00 86
20190919075519 53 184 2.0 3.0 0.00 0.00 0.00 86
20190919074519 53 196 2.0 3.0 0.00 0.00 0.00 88 1013.0
20190919073519 53 270 0.0 1.0 0.00 0.00 0.00 87 1012.9
20190919072526 54 0.0 0.0 0.00 0.00 0.00 85 1012.9
20190919071529 54 248 0.0 1.0 0.00 0.00 0.00 83 1012.8
20190919070526 55 280 2.0 2.0 0.00 0.00 0.00 81 1012.7
20190919065523 56 0.0 0.0 0.00 0.00 0.00 80 1012.7
20190919064520 56 219 1.0 3.0 0.00 0.00 0.00 78 1012.8
20190919063520 56 216 0.0 1.0 0.00 0.00 0.00 78 1012.9
20190919062522 56 0.0 0.0 0.00 0.00 0.00 77 1012.9
20190919061520 56 0.0 0.0 0.00 0.00 0.00 75 1012.8
20190919060529 57 180 1.0 2.0 0.00 0.00 0.00 71 1012.7
20190919055519 57 207 1.0 2.0 0.00 0.00 0.00 70 1012.6
20190919054519 57 186 2.0 3.0 0.00 0.00 0.00 71 1012.6
20190919053519 57 172 2.0 2.0 0.00 0.00 0.00 75 1012.5
20190919052519 57 189 1.0 2.0 0.00 0.00 0.00 77 1012.6
20190919051526 56 160 1.0 2.0 0.00 0.00 0.00 82 1012.5
20190919050523 57 113 2.0 2.0 0.00 0.00 0.00 81 1012.4
20190919045520 57 27 2.0 3.0 0.00 0.00 0.00 76 1012.2
20190919044519 57 195 1.0 2.0 0.00 0.00 0.00 73 1012.0
20190919043519 57 180 2.0 3.0 0.00 0.00 0.00 78 1012.0
20190919042525 57 196 1.0 2.0 0.00 0.00 0.00 83 1011.9
20190919041523 57 0.0 0.0 0.00 0.00 0.00 83 1011.9
20190919040521 58 282 3.0 4.0 0.00 0.00 0.00 70 1011.8
20190919035519 59 201 3.0 3.0 0.00 0.00 0.00 67 1011.6
20190919034517 58 203 2.0 4.0 0.00 0.00 0.00 71 1011.6
20190919033520 58 182 2.0 3.0 0.00 0.00 0.00 78 1011.4
20190919032527 58 219 1.0 3.0 0.00 0.00 0.00 81 1011.4
20190919031532 58 224 2.0 3.0 0.00 0.00 0.00 81 1011.3
20190919030526 58 193 2.0 2.0 0.00 0.00 0.00 82 1011.2
20190919025519 58 180 1.0 2.0 0.00 0.00 0.00 83 1011.1
20190919024521 58 190 2.0 2.0 0.00 0.00 0.00 84 1011.1
20190919023519 58 267 2.0 3.0 0.00 0.00 0.00 83 1010.7
20190919022530 59 310 2.0 3.0 0.00 0.00 0.00 78 1010.5
20190919021520 60 243 1.0 2.0 0.00 0.00 0.00 72 1010.3
20190919020531 60 211 1.0 3.0 0.00 0.00 0.00 73 1010.2
20190919015520 60 203 1.0 2.0 0.00 0.00 0.00 74 1010.3
20190919014519 60 215 1.0 2.0 0.00 0.00 0.00 76 1010.3
20190919013519 61 260 3.0 3.0 0.00 0.00 0.00 76 1010.2
20190919012524 61 263 3.0 4.0 0.00 0.00 0.00 74 1010.1
20190919011525 61 256 2.0 3.0 0.00 0.00 0.00 73 1010.2
20190919010523 62 247 3.0 4.0 0.00 0.00 0.00 71 1010.0
20190919005519 62 250 2.0 4.0 0.00 0.00 0.00 70 1009.9
20190919004519 62 258 3.0 4.0 0.00 0.00 0.00 71 1009.8
20190919003519 62 263 4.0 5.0 0.00 0.00 0.00 71 1009.8
20190919002528 62 249 4.0 6.0 0.00 0.00 0.00 70 1009.7
20190919001525 63 261 4.0 5.0 0.00 0.00 0.00 65 1009.5
20190919000522 63 261 5.0 6.0 0.00 0.00 0.00 61 1009.7
20190918235519 63 270 4.0 6.0 0.00 0.00 0.00 62 1009.4
20190918234519 64 271 3.0 4.0 0.00 0.00 0.00 63 1009.4
20190918233519 63 275 2.0 2.0 0.00 0.00 0.00 63 1009.3
20190918232535 63 256 3.0 3.0 0.00 0.00 0.00 63 1009.2
20190918231531 62 271 2.0 3.0 0.00 0.00 0.00 65 1009.2
20190918230529 63 300 3.0 4.0 0.00 0.00 0.00 66 1009.1
20190918225520 63 297 3.0 3.0 0.00 0.00 0.00 61 1009.0
20190918224519 65 283 2.0 4.0 0.00 0.00 0.00 56 1009.0
20190918223519 65 302 4.0 5.0 0.00 0.00 0.00 56 1009.1
20190918222523 64 266 4.0 6.0 0.00 0.00 0.00 59 1009.1
20190918221520 63 270 4.0 7.0 0.00 0.00 0.00 61 1009.1
20190918220536 62 239 3.0 5.0 0.00 0.00 0.00 64 1009.1
20190918215520 64 270 6.0 11.0 0.00 0.00 0.00 61 1009.3
20190918214519 62 261 7.0 8.0 0.00 0.00 0.00 67 1009.2
20190918213519 62 270 8.0 9.0 0.00 0.00 0.00 64 1009.1
20190918212547 63 256 7.0 8.0 0.00 0.00 0.00 61 1009.1
20190918211520 65 276 9.0 10.0 0.00 0.01 0.00 60 1008.8
20190918205519 71 68 2.0 4.0 0.00 0.01 0.00 46 1008.9
20190918204519 68 135 2.0 4.0 0.00 0.01 0.00 49 1008.9
20190918203519 66 246 2.0 3.0 0.00 0.02 0.00 53 1008.8
20190918202520 67 116 1.0 2.0 0.00 0.03 0.00 49 1008.8
20190918201530 67 107 2.0 3.0 0.00 0.03 0.00 51 1009.0
20190918200520 69 0.0 0.0 0.00 0.03 0.00 48 1009.1
20190918195519 0 0.0 0.0 0.00 0.03 0.00
20190918194519 68 46 5.0 5.0 0.00 0.03 0.00 48 1009.0
20190918193519 67 29 4.0 5.0 0.00 0.03 0.00 52 1009.1
20190918192521 68 358 4.0 6.0 0.00 0.03 0.00 53 1009.0
20190918191528 66 346 3.0 4.0 0.00 0.03 0.00 55 1009.1
20190918190519 68 12 3.0 4.0 0.00 0.03 0.00 54 1009.2
20190918185519 66 311 1.0 2.0 0.00 0.03 0.00 55 1009.2
20190918184519 67 12 4.0 5.0 0.00 0.03 0.00 52 1009.2
20190918183524 68 103 3.0 4.0 0.00 0.03 0.00 53 1009.5
20190918182523 68 36 3.0 5.0 0.00 0.03 0.00 54 1009.3
20190918181520 66 130 3.0 5.0 0.00 0.03 0.00 58 1009.3
20190918180520 65 245 2.0 4.0 0.00 0.03 0.00 60 1009.1
20190918175519 65 270 2.0 3.0 0.00 0.03 0.00 63 1009.0
20190918174519 64 251 3.0 4.0 0.00 0.03 0.00 65 1009.0
20190918173528 63 132 2.0 3.0 0.00 0.03 0.00 66 1008.9
20190918172527 64 5 2.0 4.0 0.00 0.03 0.00 65 1009.0
20190918171526 63 275 4.0 5.0 0.00 0.03 0.00 68 1008.9
20190918170519 61 205 2.0 4.0 0.00 0.03 0.00 69 1008.8
20190918165519 61 233 3.0 5.0 0.00 0.03 0.00 70 1008.9
20190918164519 60 236 4.0 6.0 0.00 0.03 0.00 72 1008.9
20190918163528 60 164 6.0 9.0 0.00 0.03 0.00 71 1008.9
20190918162527 60 270 1.0 3.0 0.00 0.03 0.00 72 1008.8
20190918161527 59 317 2.0 3.0 0.00 0.03 0.00 76 1008.7
20190918160520 60 3 2.0 3.0 0.00 0.03 0.00 76 1008.6
20190918155519 59 31 1.0 2.0 0.00 0.03 0.00 80 1008.5
20190918154520 57 263 1.0 2.0 0.00 0.03 0.00 81 1008.4
20190918153522 56 175 1.0 2.0 0.00 0.03 0.00 85 1008.4
20190918152522 55 126 1.0 3.0 0.00 0.03 0.00 88 1008.4
20190918151523 55 233 1.0 2.0 0.00 0.03 0.00 88 1008.4
20190918150520 53 323 4.0 5.0 0.00 0.03 0.00 92 1008.3
20190918145519 51 219 0.0 2.0 0.00 0.03 0.00 93 1008.3
20190918144519 52 320 1.0 2.0 0.00 0.03 0.00 91 1008.1
20190918143524 51 138 1.0 2.0 0.00 0.03 0.00 92 1008.2
20190918142526 50 103 2.0 2.0 0.00 0.03 0.00 94 1008.1
20190918141523 48 188 2.0 2.0 0.00 0.03 0.00 97 1007.8
20190918140519 48 115 1.0 2.0 0.00 0.03 0.00 97 1007.8
20190918135519 48 141 2.0 3.0 0.00 0.03 0.00 97 1007.8
20190918134519 49 227 2.0 3.0 0.00 0.03 0.00 97 1007.7
20190918133527 49 263 2.0 4.0 0.00 0.03 0.00 96 1007.7
20190918132526 50 199 2.0 4.0 0.00 0.03 0.00 95 1007.6
20190918131524 50 183 2.0 3.0 0.00 0.03 0.00 97 1007.5
20190918130519 50 171 1.0 2.0 0.00 0.03 0.00 97 1007.6
20190918125519 50 113 0.0 2.0 0.00 0.03 0.00 97 1007.5
20190918124520 50 53 2.0 2.0 0.00 0.03 0.00 97 1007.6
20190918123527 50 95 2.0 3.0 0.00 0.03 0.00 97 1007.6
20190918122527 50 281 2.0 3.0 0.00 0.03 0.00 96 1007.5
20190918121528 50 113 1.0 3.0 0.00 0.03 0.00 95 1007.4
20190918120519 51 251 1.0 2.0 0.00 0.03 0.00 94 1007.2
20190918115519 51 216 1.0 2.0 0.00 0.03 0.00 93 1007.2
20190918114520 52 90 1.0 2.0 0.00 0.03 0.00 91 1007.1
20190918113520 53 275 1.0 2.0 0.00 0.03 0.00 91 1007.1
20190918112522 53 262 4.0 5.0 0.00 0.03 0.00 89 1007.0
20190918111520 53 281 3.0 5.0 0.00 0.03 0.00 87 1007.0
20190918110520 53 252 4.0 5.0 0.00 0.03 0.00 89 1006.9
20190918105519 54 273 6.0 9.0 0.00 0.03 0.00 88 1006.8
20190918104519 54 217 2.0 4.0 0.00 0.03 0.00 86 1006.6
20190918103524 54 94 0.0 2.0 0.00 0.03 0.00 87 1006.5
20190918102522 54 185 1.0 2.0 0.00 0.03 0.00 86 1006.4
20190918101520 54 182 2.0 2.0 0.00 0.03 0.00 87 1006.5
20190918100519 55 353 4.0 5.0 0.00 0.03 0.00 83 1006.8
20190918095519 55 170 5.0 8.0 0.00 0.03 0.00 84 1006.8
20190918094520 54 267 2.0 3.0 0.00 0.03 0.00 87 1006.9
20190918093528 53 292 3.0 4.0 0.00 0.03 0.00 86 1007.0
20190918092527 53 306 0.0 2.0 0.00 0.03 0.00 86 1007.1
20190918091524 53 279 2.0 3.0 0.00 0.03 0.00 87 1007.1
20190918090519 53 253 1.0 2.0 0.00 0.03 0.00 87 1007.2
20190918085520 53 7 1.0 2.0 0.00 0.03 0.00 87 1006.9
20190918084519 52 283 2.0 3.0 0.00 0.03 0.00 87 1007.0
20190918083522 53 222 3.0 3.0 0.00 0.03 0.00 86 1006.9
20190918082519 53 297 1.0 2.0 0.00 0.03 0.00 82 1006.8
20190918081527 54 186 2.0 3.0 0.00 0.03 0.00 81 1006.7